sat.trackr.live / text

‹ back to catalog

ONEWEB-0162

NORAD 48056 · 2021-025Q

PAYLOAD ACTIVE UNKNOWN

§ Identity

Operator
Country
UK
Launch date
2021-03-25
Launch site
VOSTO
Launch vehicle
Mass (kg)
RCS (m²)

Purposes: comms

External: N2YO · Heavens-Above · Gunter

§ Orbital elements

Epoch: 2026-09-20T01:07:54.503040Z

Period
109.63 min
Inclination
87.8917°
Eccentricity
0.0001947
Mean motion
13.13468770 rev/d
Perigee alt
1,208.3 km
Apogee alt
1,211.2 km
Semi-major
7,587.9 km
B*
-2.9205e-4
RAAN
301.3493°
Arg perigee
98.7612°
Mean anomaly
261.3738°
Rev number
26,599

§ Raw data

ONEWEB-01621 48056U 21025Q   26263.04715860 -.00000094  00000+0 -29205-3 0  99982 48056  87.8917 301.3493 0001947  98.7612 261.3738 13.13468770265993

JSON: /api/v1/satellites/48056 · /tle

For live sub-satellite position, see the globe view (requires WebGL).

§ Visibility from observer

Set your observer location to see the next 7 days of passes ≥ 10°. The values pass through the URL so the page stays shareable.

No JS? Fill the form by hand. The geolocation button needs JavaScript.